QPF
0.01 0.01 0.01 0.02 0.02 0.02 0.03 0.04 0.04 0.03 0.02 0.02 0.03 0.04 0.05 0.06 0.08 0.11 0.12 0.14 0.15 0.17 0.20 0.21 0.21 0.23 0.26 0.26 0.22 0.18 0.14 0.11 0.09 0.09 0.08 0.08 0.06 0.04 0.03 0.03 0.03 0.03 0.02
0.01 0.01 0.01 0.02 0.03 0.04 0.05 0.06 0.06 0.05 0.04 0.04 0.06 0.10 0.16 0.21 0.21 0.19 0.19 0.17 0.17 0.18 0.21 0.22 0.24 0.26 0.28 0.27 0.27 0.25 0.22 0.18 0.15 0.14 0.13 0.10 0.06 0.03 0.02 0.02 0.02 0.02 0.02
0.01 0.01 0.02 0.03 0.04 0.05 0.06 0.06 0.07 0.11 0.13 0.14 0.16 0.23 0.29 0.36 0.37 0.32 0.28 0.24 0.21 0.20 0.23 0.24 0.25 0.27 0.27 0.29 0.29 0.26 0.25 0.24 0.22 0.20 0.17 0.12 0.10 0.06 0.02 0.01 0.01 0.01 0.01
0.01 0.01 0.02 0.03 0.04 0.04 0.05 0.06 0.07 0.14 0.19 0.23 0.27 0.32 0.38 0.43 0.43 0.42 0.37 0.29 0.23 0.22 0.22 0.23 0.24 0.24 0.24 0.23 0.23 0.26 0.29 0.30 0.26 0.20 0.15 0.10 0.07 0.06 0.04 0.01 0.00 0.00 0.00
0.01 0.01 0.02 0.03 0.03 0.03 0.03 0.05 0.07 0.11 0.17 0.25 0.32 0.38 0.39 0.38 0.39 0.39 0.32 0.28 0.26 0.23 0.22 0.22 0.22 0.21 0.20 0.19 0.18 0.19 0.22 0.21 0.18 0.15 0.11 0.08 0.05 0.04 0.04 0.03 0.01 0.01 0.00
0.02 0.02 0.02 0.02 0.03 0.04 0.05 0.06 0.07 0.10 0.15 0.23 0.30 0.39 0.45 0.46 0.42 0.35 0.30 0.28 0.25 0.23 0.22 0.20 0.19 0.18 0.16 0.14 0.12 0.11 0.10 0.09 0.08 0.06 0.05 0.04 0.04 0.04 0.03 0.02 0.02 0.01 0.01
0.02 0.02 0.02 0.02 0.03 0.05 0.06 0.06 0.07 0.12 0.16 0.19 0.24 0.28 0.34 0.39 0.39 0.34 0.28 0.25 0.24 0.23 0.20 0.17 0.15 0.12 0.10 0.08 0.07 0.07 0.05 0.04 0.03 0.02 0.02 0.02 0.02 0.01 0.01 0.01 0.01 0.01 0.01
0.02 0.02 0.02 0.02 0.03 0.04 0.06 0.07 0.08 0.11 0.13 0.16 0.19 0.21 0.24 0.25 0.25 0.25 0.24 0.22 0.19 0.16 0.13 0.10 0.08 0.06 0.05 0.06 0.05 0.04 0.03 0.02 0.02 0.02 0.02 0.02 0.02 0.02 0.02 0.02 0.02 0.02 0.01
0.02 0.02 0.02 0.02 0.03 0.03 0.04 0.06 0.07 0.09 0.11 0.12 0.12 0.12 0.14 0.16 0.17 0.16 0.15 0.14 0.13 0.11 0.10 0.08 0.05 0.04 0.03 0.03 0.03 0.02 0.02 0.02 0.02 0.02 0.02 0.01 0.01 0.01 0.01 0.01 0.01 0.01 0.01
0.02 0.02 0.02 0.02 0.03 0.03 0.04 0.05 0.06 0.07 0.08 0.09 0.09 0.11 0.12 0.13 0.14 0.14 0.14 0.13 0.10 0.08 0.07 0.05 0.04 0.03 0.02 0.02 0.02 0.01 0.01 0.01 0.01 0.01 0.01 0.01 0.01 0.01 0.01 0.01 0.01 0.02 0.02
0.02 0.02 0.02 0.02 0.03 0.04 0.04 0.05 0.07 0.07 0.07 0.08 0.09 0.09 0.10 0.11 0.11 0.11 0.11 0.09 0.07 0.04 0.03 0.03 0.02 0.02 0.01 0.01 0.01 0.01 0.01 0.01 0.01 0.01 0.00 0.00 0.00 0.00 0.01 0.01 0.01 0.01 0.01
0.02 0.02 0.02 0.02 0.02 0.03 0.04 0.04 0.05 0.07 0.08 0.08 0.08 0.08 0.09 0.09 0.08 0.07 0.06 0.05 0.05 0.04 0.04 0.03 0.03 0.02 0.02 0.01 0.01 0.01 0.00 0.00 0.00 0.00 0.00 0.00 0.00 0.00 0.00 0.01 0.01 0.01 0.01
0.02 0.02 0.02 0.02 0.02 0.03 0.03 0.04 0.04 0.05 0.05 0.05 0.05 0.05 0.06 0.06 0.05 0.05 0.04 0.04 0.04 0.03 0.02 0.02 0.02 0.02 0.01 0.00 0.00 0.00 0.00 0.00 0.00 0.00 0.00 0.00 0.00 0.01 0.01 0.01 0.01 0.01 0.01
0.03 0.03 0.03 0.03 0.03 0.02 0.02 0.03 0.03 0.03 0.03 0.03 0.03 0.03 0.03 0.04 0.04 0.03 0.03 0.02 0.02 0.01 0.01 0.01 0.00 0.00 0.00 0.00 0.00 0.00 0.00 0.00 0.00 0.00 0.00 0.00 0.00 0.01 0.02 0.02 0.02 0.02 0.02
0.05 0.05 0.04 0.04 0.03 0.03 0.02 0.03 0.03 0.03 0.02 0.02 0.02 0.02 0.02 0.02 0.01 0.01 0.01 0.00 0.00 0.00 0.00 0.00 0.00 0.00 0.00 0.00 0.00 0.00 0.00 0.00 0.00 0.00 0.00 0.00 0.00 0.00 0.01 0.01 0.02 0.03 0.03
0.06 0.06 0.05 0.05 0.05 0.05 0.04 0.03 0.03 0.03 0.03 0.03 0.02 0.02 0.01 0.01 0.01 0.00 0.00 0.00 0.00 0.00 0.00 0.00 0.00 0.00 0.00 0.00 0.00 0.00 0.00 0.00 0.00 0.00 0.00 0.00 0.00 0.00 0.00 0.00 0.01 0.01 0.02
0.07 0.07 0.07 0.07 0.07 0.06 0.05 0.05 0.04 0.04 0.04 0.03 0.02 0.01 0.01 0.00 0.00 0.00 0.00 0.00 0.00 0.00 0.00 0.00 0.00 0.00 0.00 0.00 0.00 0.00 0.00 0.00 0.00 0.00 0.00 0.00 0.00 0.01 0.01 0.01 0.01 0.01 0.01
0.11 0.10 0.09 0.08 0.07 0.05 0.04 0.04 0.03 0.03 0.02 0.01 0.01 0.00 0.00 0.00 0.00 0.00 0.00 0.00 0.00 0.00 0.00 0.00 0.00 0.00 0.00 0.00 0.00 0.00 0.00 0.01 0.01 0.01 0.01 0.01 0.02 0.01 0.01 0.01 0.02 0.03 0.03
0.15 0.13 0.10 0.07 0.06 0.04 0.02 0.02 0.02 0.01 0.01 0.01 0.01 0.01 0.01 0.00 0.00 0.00 0.00 0.00 0.00 0.00 0.00 0.00 0.00 0.00 0.00 0.00 0.00 0.00 0.00 0.01 0.01 0.01 0.01 0.01 0.01 0.01 0.01 0.01 0.02 0.03 0.04
0.16 0.12 0.09 0.06 0.04 0.03 0.02 0.01 0.01 0.01 0.00 0.00 0.01 0.01 0.00 0.00 0.00 0.01 0.01 0.00 0.00 0.00 0.00 0.00 0.00 0.00 0.00 0.00 0.00 0.00 0.00 0.00 0.01 0.02 0.02 0.01 0.01 0.01 0.01 0.01 0.02 0.02 0.04
0.13 0.09 0.07 0.06 0.05 0.03 0.02 0.01 0.01 0.01 0.00 0.00 0.00 0.00 0.00 0.00 0.00 0.00 0.00 0.00 0.00 0.00 0.00 0.00 0.01 0.01 0.00 0.00 0.00 0.00 0.00 0.00 0.01 0.02 0.03 0.03 0.01 0.01 0.01 0.01 0.01 0.02 0.01
0.09 0.08 0.07 0.06 0.04 0.02 0.01 0.01 0.01 0.00 0.00 0.00 0.00 0.00 0.00 0.00 0.00 0.01 0.01 0.01 0.01 0.01 0.01 0.01 0.01 0.01 0.01 0.00 0.00 0.00 0.00 0.00 0.01 0.02 0.02 0.02 0.01 0.00 0.00 0.00 0.01 0.01 0.01
0.06 0.05 0.04 0.02 0.02 0.01 0.01 0.01 0.01 0.00 0.00 0.00 0.00 0.00 0.00 0.00 0.00 0.01 0.01 0.01 0.01 0.01 0.01 0.01 0.01 0.01 0.01 0.01 0.00 0.00 0.00 0.00 0.01 0.02 0.01 0.00 0.00 0.01 0.02 0.01 0.01 0.02 0.04
0.03 0.03 0.02 0.01 0.01 0.01 0.01 0.01 0.01 0.00 0.00 0.01 0.01 0.00 0.00 0.00 0.01 0.01 0.00 0.00 0.01 0.01 0.01 0.01 0.01 0.01 0.01 0.01 0.00 0.00 0.01 0.01 0.01 0.02 0.02 0.02 0.01 0.02 0.02 0.03 0.04 0.05 0.04
0.02 0.02 0.01 0.01 0.01 0.01 0.01 0.01 0.00 0.00 0.01 0.01 0.01 0.01 0.00 0.00 0.00 0.00 0.00 0.00 0.00 0.00 0.00 0.01 0.01 0.01 0.01 0.00 0.00 0.00 0.00 0.01 0.00 0.01 0.04 0.05 0.03 0.04 0.05 0.05 0.05 0.05 0.04
0.01 0.01 0.01 0.01 0.00 0.00 0.00 0.00 0.00 0.00 0.01 0.01 0.01 0.01 0.01 0.00 0.00 0.00 0.00 0.00 0.00 0.00 0.00 0.00 0.00 0.00 0.00 0.00 0.00 0.00 0.00 0.00 0.01 0.03 0.04 0.03 0.02 0.03 0.03 0.04 0.04 0.05 0.04
MSLP
1009.29 1009.28 1009.37 1009.57 1009.87 1010.24 1010.68 1011.16 1011.66 1012.16 1012.66 1013.15 1013.63 1014.11 1014.58 1015.05 1015.51 1015.95 1016.36 1016.73 1017.03 1017.28 1017.46 1017.59 1017.70 1017.81 1017.93 1018.09 1018.29 1018.52 1018.77 1019.02 1019.26 1019.46 1019.63 1019.75 1019.85 1019.92 1019.99 1020.06 1020.13 1020.21 1020.28
1010.29 1010.10 1009.99 1009.98 1010.07 1010.26 1010.53 1010.87 1011.28 1011.73 1012.20 1012.71 1013.23 1013.76 1014.31 1014.86 1015.39 1015.90 1016.37 1016.78 1017.12 1017.39 1017.58 1017.72 1017.82 1017.92 1018.03 1018.18 1018.37 1018.60 1018.85 1019.13 1019.39 1019.63 1019.83 1020.00 1020.13 1020.24 1020.33 1020.42 1020.49 1020.56 1020.62
1011.48 1011.13 1010.83 1010.62 1010.51 1010.50 1010.60 1010.80 1011.10 1011.47 1011.92 1012.41 1012.96 1013.54 1014.15 1014.76 1015.37 1015.94 1016.47 1016.93 1017.30 1017.59 1017.80 1017.95 1018.05 1018.13 1018.23 1018.36 1018.52 1018.73 1018.97 1019.23 1019.49 1019.74 1019.97 1020.16 1020.32 1020.46 1020.57 1020.67 1020.76 1020.83 1020.89
1012.80 1012.33 1011.90 1011.52 1011.24 1011.06 1011.01 1011.08 1011.26 1011.56 1011.95 1012.43 1012.98 1013.58 1014.22 1014.88 1015.54 1016.16 1016.73 1017.23 1017.64 1017.96 1018.19 1018.35 1018.45 1018.53 1018.60 1018.70 1018.83 1019.00 1019.20 1019.43 1019.66 1019.89 1020.10 1020.30 1020.46 1020.60 1020.73 1020.83 1020.91 1020.98 1021.04
1014.16 1013.65 1013.14 1012.67 1012.28 1011.98 1011.81 1011.77 1011.87 1012.08 1012.42 1012.86 1013.38 1013.98 1014.63 1015.30 1015.97 1016.62 1017.22 1017.75 1018.19 1018.53 1018.79 1018.96 1019.07 1019.14 1019.20 1019.26 1019.35 1019.46 1019.60 1019.77 1019.95 1020.13 1020.30 1020.46 1020.60 1020.72 1020.82 1020.90 1020.97 1021.02 1021.06
1015.48 1015.00 1014.50 1014.01 1013.58 1013.23 1013.00 1012.89 1012.91 1013.07 1013.34 1013.73 1014.21 1014.77 1015.39 1016.04 1016.70 1017.35 1017.95 1018.49 1018.94 1019.31 1019.59 1019.77 1019.89 1019.96 1020.00 1020.03 1020.07 1020.12 1020.20 1020.28 1020.38 1020.48 1020.59 1020.68 1020.76 1020.82 1020.88 1020.91 1020.94 1020.96 1020.97
1016.65 1016.29 1015.87 1015.45 1015.05 1014.72 1014.48 1014.35 1014.33 1014.44 1014.66 1014.98 1015.41 1015.91 1016.47 1017.08 1017.70 1018.31 1018.89 1019.42 1019.88 1020.26 1020.55 1020.75 1020.88 1020.95 1020.98 1020.98 1020.97 1020.95 1020.94 1020.94 1020.94 1020.95 1020.96 1020.96 1020.96 1020.95 1020.93 1020.90 1020.87 1020.83 1020.79
1017.63 1017.43 1017.17 1016.87 1016.57 1016.32 1016.12 1016.00 1015.98 1016.06 1016.24 1016.51 1016.87 1017.30 1017.80 1018.33 1018.89 1019.45 1019.99 1020.49 1020.93 1021.31 1021.60 1021.82 1021.95 1022.03 1022.04 1022.01 1021.95 1021.87 1021.77 1021.68 1021.58 1021.48 1021.39 1021.29 1021.20 1021.10 1021.00 1020.89 1020.79 1020.69 1020.59
1018.37 1018.38 1018.30 1018.17 1018.01 1017.86 1017.75 1017.69 1017.69 1017.77 1017.93 1018.15 1018.45 1018.81 1019.23 1019.68 1020.16 1020.65 1021.13 1021.59 1022.00 1022.36 1022.65 1022.87 1023.01 1023.08 1023.08 1023.02 1022.91 1022.77 1022.60 1022.41 1022.21 1022.02 1021.82 1021.63 1021.45 1021.27 1021.09 1020.91 1020.74 1020.57 1020.42
1018.92 1019.12 1019.22 1019.26 1019.26 1019.24 1019.23 1019.24 1019.30 1019.39 1019.54 1019.74 1019.99 1020.29 1020.63 1021.00 1021.40 1021.82 1022.23 1022.63 1023.00 1023.33 1023.61 1023.81 1023.95 1024.01 1023.99 1023.91 1023.76 1023.56 1023.32 1023.05 1022.78 1022.49 1022.22 1021.95 1021.69 1021.44 1021.21 1020.98 1020.75 1020.53 1020.33
1019.32 1019.68 1019.94 1020.13 1020.26 1020.37 1020.45 1020.55 1020.65 1020.78 1020.94 1021.13 1021.35 1021.60 1021.88 1022.19 1022.51 1022.85 1023.19 1023.53 1023.85 1024.14 1024.39 1024.57 1024.69 1024.74 1024.71 1024.60 1024.41 1024.17 1023.88 1023.55 1023.21 1022.87 1022.53 1022.21 1021.91 1021.63 1021.36 1021.10 1020.84 1020.59 1020.35
1019.69 1020.13 1020.50 1020.79 1021.02 1021.22 1021.39 1021.56 1021.72 1021.89 1022.07 1022.26 1022.47 1022.69 1022.92 1023.16 1023.42 1023.69 1023.96 1024.23 1024.50 1024.74 1024.95 1025.11 1025.21 1025.24 1025.19 1025.06 1024.85 1024.58 1024.26 1023.90 1023.52 1023.14 1022.78 1022.43 1022.11 1021.82 1021.54 1021.27 1021.01 1020.75 1020.48
1020.08 1020.56 1020.97 1021.31 1021.60 1021.85 1022.08 1022.30 1022.50 1022.71 1022.91 1023.12 1023.32 1023.52 1023.72 1023.91 1024.11 1024.32 1024.52 1024.73 1024.94 1025.13 1025.30 1025.43 1025.50 1025.51 1025.45 1025.31 1025.09 1024.81 1024.47 1024.09 1023.71 1023.32 1022.95 1022.60 1022.29 1022.00 1021.73 1021.48 1021.22 1020.96 1020.69
1020.56 1021.02 1021.42 1021.76 1022.06 1022.33 1022.59 1022.83 1023.07 1023.30 1023.52 1023.74 1023.94 1024.12 1024.30 1024.45 1024.60 1024.75 1024.90 1025.05 1025.19 1025.33 1025.46 1025.55 1025.61 1025.60 1025.53 1025.39 1025.17 1024.89 1024.56 1024.19 1023.81 1023.44 1023.08 1022.75 1022.45 1022.18 1021.93 1021.69 1021.44 1021.18 1020.91
1021.14 1021.55 1021.89 1022.20 1022.48 1022.74 1023.00 1023.25 1023.49 1023.74 1023.97 1024.19 1024.39 1024.56 1024.71 1024.83 1024.93 1025.03 1025.12 1025.21 1025.30 1025.39 1025.48 1025.54 1025.57 1025.56 1025.49 1025.35 1025.15 1024.89 1024.58 1024.24 1023.88 1023.53 1023.20 1022.89 1022.61 1022.35 1022.11 1021.87 1021.62 1021.36 1021.07
1021.80 1022.13 1022.42 1022.67 1022.91 1023.14 1023.38 1023.62 1023.86 1024.10 1024.33 1024.55 1024.73 1024.89 1025.00 1025.09 1025.15 1025.20 1025.24 1025.27 1025.32 1025.37 1025.42 1025.46 1025.48 1025.46 1025.40 1025.28 1025.10 1024.87 1024.59 1024.28 1023.96 1023.63 1023.32 1023.03 1022.75 1022.50 1022.25 1022.00 1021.73 1021.44 1021.13
1022.49 1022.75 1022.98 1023.18 1023.37 1023.57 1023.78 1023.99 1024.22 1024.45 1024.66 1024.86 1025.02 1025.15 1025.24 1025.29 1025.30 1025.31 1025.30 1025.30 1025.30 1025.32 1025.35 1025.37 1025.39 1025.38 1025.33 1025.23 1025.08 1024.88 1024.64 1024.36 1024.06 1023.76 1023.46 1023.17 1022.89 1022.61 1022.33 1022.04 1021.74 1021.41 1021.05
1023.14 1023.36 1023.54 1023.70 1023.86 1024.02 1024.20 1024.39 1024.60 1024.80 1024.99 1025.16 1025.29 1025.38 1025.43 1025.44 1025.42 1025.39 1025.35 1025.32 1025.30 1025.30 1025.32 1025.34 1025.36 1025.36 1025.33 1025.25 1025.13 1024.96 1024.74 1024.49 1024.21 1023.91 1023.61 1023.30 1022.99 1022.68 1022.35 1022.01 1021.64 1021.25 1020.83
1023.70 1023.89 1024.05 1024.19 1024.32 1024.47 1024.63 1024.80 1024.97 1025.15 1025.30 1025.44 1025.53 1025.59 1025.60 1025.58 1025.53 1025.47 1025.42 1025.37 1025.35 1025.35 1025.37 1025.40 1025.43 1025.45 1025.44 1025.38 1025.28 1025.12 1024.92 1024.67 1024.39 1024.09 1023.76 1023.42 1023.07 1022.69 1022.30 1021.89 1021.45 1020.98 1020.51
1024.13 1024.32 1024.47 1024.61 1024.74 1024.87 1025.02 1025.17 1025.32 1025.46 1025.59 1025.68 1025.74 1025.76 1025.74 1025.70 1025.64 1025.57 1025.51 1025.48 1025.47 1025.48 1025.53 1025.58 1025.63 1025.66 1025.66 1025.61 1025.51 1025.36 1025.15 1024.89 1024.58 1024.25 1023.88 1023.49 1023.08 1022.64 1022.18 1021.69 1021.18 1020.65 1020.12
1024.44 1024.63 1024.79 1024.93 1025.07 1025.20 1025.34 1025.48 1025.61 1025.72 1025.82 1025.88 1025.90 1025.89 1025.85 1025.79 1025.73 1025.67 1025.63 1025.63 1025.65 1025.70 1025.78 1025.86 1025.93 1025.98 1025.98 1025.93 1025.82 1025.64 1025.40 1025.10 1024.75 1024.37 1023.95 1023.50 1023.02 1022.52 1021.99 1021.44 1020.87 1020.29 1019.70
1024.64 1024.84 1025.01 1025.16 1025.30 1025.44 1025.57 1025.70 1025.82 1025.91 1025.97 1026.00 1026.00 1025.96 1025.91 1025.85 1025.80 1025.77 1025.77 1025.81 1025.88 1025.98 1026.10 1026.21 1026.31 1026.36 1026.36 1026.29 1026.14 1025.92 1025.63 1025.27 1024.86 1024.42 1023.93 1023.42 1022.88 1022.33 1021.74 1021.14 1020.53 1019.91 1019.30
1024.75 1024.96 1025.13 1025.29 1025.44 1025.58 1025.72 1025.84 1025.94 1026.01 1026.05 1026.05 1026.03 1025.98 1025.93 1025.88 1025.85 1025.85 1025.90 1026.00 1026.13 1026.28 1026.44 1026.59 1026.70 1026.76 1026.73 1026.63 1026.43 1026.15 1025.79 1025.36 1024.88 1024.37 1023.82 1023.25 1022.66 1022.06 1021.44 1020.82 1020.18 1019.55 1018.93
1024.81 1025.01 1025.19 1025.35 1025.50 1025.65 1025.79 1025.90 1026.00 1026.05 1026.07 1026.05 1026.01 1025.95 1025.89 1025.86 1025.86 1025.91 1026.01 1026.16 1026.35 1026.55 1026.76 1026.94 1027.06 1027.10 1027.05 1026.90 1026.65 1026.29 1025.86 1025.35 1024.80 1024.21 1023.60 1022.99 1022.36 1021.74 1021.11 1020.48 1019.85 1019.22 1018.61
1024.85 1025.03 1025.20 1025.36 1025.52 1025.67 1025.81 1025.92 1026.00 1026.04 1026.04 1026.01 1025.95 1025.88 1025.83 1025.81 1025.83 1025.92 1026.07 1026.27 1026.51 1026.76 1027.00 1027.19 1027.32 1027.34 1027.26 1027.06 1026.74 1026.32 1025.81 1025.23 1024.61 1023.97 1023.32 1022.67 1022.03 1021.41 1020.78 1020.17 1019.56 1018.96 1018.36
1024.87 1025.04 1025.20 1025.36 1025.53 1025.68 1025.81 1025.92 1025.99 1026.01 1025.99 1025.94 1025.86 1025.79 1025.73 1025.72 1025.77 1025.88 1026.06 1026.30 1026.58 1026.86 1027.12 1027.33 1027.44 1027.44 1027.32 1027.07 1026.70 1026.22 1025.65 1025.03 1024.36 1023.69 1023.02 1022.36 1021.73 1021.12 1020.52 1019.94 1019.36 1018.79 1018.22
Thickness
5763 5767 5769 5771 5771 5768 5765 5763 5759 5755 5750 5746 5742 5736 5731 5727 5724 5721 5718 5716 5713 5711 5708 5707 5705 5702 5700 5699 5697 5693 5690 5687 5687 5685 5682 5681 5680 5678 5677 5675 5673 5670 5668
5750 5754 5758 5761 5763 5762 5760 5757 5755 5752 5748 5744 5740 5735 5729 5722 5718 5713 5708 5706 5704 5703 5701 5699 5697 5694 5691 5690 5688 5685 5682 5679 5676 5675 5672 5669 5668 5667 5666 5664 5662 5660 5658
5736 5740 5744 5748 5752 5753 5753 5753 5750 5747 5743 5740 5735 5729 5723 5716 5708 5703 5700 5697 5694 5693 5691 5688 5687 5685 5684 5681 5678 5676 5674 5670 5664 5662 5661 5660 5659 5659 5655 5652 5651 5648 5646
5724 5727 5731 5735 5739 5743 5746 5746 5743 5741 5738 5735 5731 5724 5717 5708 5702 5696 5691 5687 5683 5682 5680 5678 5676 5674 5672 5669 5668 5667 5665 5660 5655 5652 5650 5648 5647 5645 5644 5641 5639 5636 5634
5710 5713 5717 5721 5726 5731 5734 5735 5734 5731 5730 5727 5722 5715 5708 5700 5693 5686 5682 5676 5671 5669 5667 5665 5663 5661 5659 5657 5656 5655 5652 5649 5645 5641 5639 5637 5635 5633 5631 5630 5627 5625 5622
5696 5699 5704 5709 5713 5717 5720 5721 5721 5718 5717 5715 5711 5706 5698 5689 5683 5676 5670 5663 5658 5655 5653 5652 5650 5648 5646 5643 5641 5640 5638 5634 5631 5629 5627 5625 5622 5619 5619 5618 5614 5612 5610
5683 5686 5689 5693 5696 5700 5703 5705 5706 5703 5702 5700 5696 5692 5686 5679 5671 5665 5659 5652 5646 5641 5638 5637 5636 5634 5632 5629 5627 5625 5623 5620 5617 5615 5613 5611 5608 5605 5605 5604 5601 5598 5596
5671 5672 5675 5677 5680 5683 5686 5688 5688 5687 5684 5682 5679 5675 5670 5664 5658 5652 5646 5639 5632 5627 5624 5623 5620 5618 5616 5614 5611 5610 5608 5605 5602 5600 5597 5597 5594 5590 5588 5586 5583 5583 5582
5658 5659 5661 5663 5665 5666 5668 5669 5670 5668 5666 5663 5661 5656 5652 5647 5642 5636 5630 5622 5617 5613 5609 5607 5604 5602 5600 5598 5596 5594 5592 5590 5588 5586 5583 5581 5578 5575 5572 5569 5566 5564 5564
5646 5646 5647 5648 5649 5650 5651 5652 5652 5650 5648 5646 5643 5638 5633 5629 5624 5619 5613 5607 5602 5599 5595 5592 5589 5587 5585 5583 5581 5580 5576 5574 5572 5568 5566 5563 5562 5558 5555 5552 5548 5544 5541
5634 5632 5632 5633 5634 5635 5635 5634 5633 5632 5629 5627 5623 5620 5615 5611 5607 5602 5598 5592 5587 5584 5582 5578 5575 5572 5570 5567 5565 5563 5561 5558 5555 5552 5550 5546 5542 5541 5538 5534 5530 5525 5521
5621 5620 5619 5619 5619 5619 5619 5618 5616 5614 5611 5608 5605 5601 5597 5594 5590 5585 5580 5576 5573 5569 5566 5564 5561 5558 5555 5553 5551 5549 5545 5543 5540 5536 5532 5529 5525 5520 5518 5514 5511 5507 5501
5609 5607 5607 5606 5604 5603 5603 5601 5600 5598 5595 5592 5589 5585 5581 5578 5574 5569 5565 5562 5559 5556 5553 5550 5547 5544 5541 5539 5537 5534 5530 5526 5523 5519 5515 5511 5507 5503 5499 5494 5492 5489 5486
5597 5595 5593 5591 5589 5589 5588 5586 5584 5582 5579 5576 5573 5569 5566 5563 5559 5555 5552 5549 5546 5543 5540 5538 5535 5532 5529 5525 5522 5519 5515 5510 5506 5502 5498 5493 5488 5484 5480 5478 5475 5472 5469
5585 5582 5579 5577 5575 5573 5572 5571 5569 5566 5564 5562 5559 5555 5552 5549 5545 5542 5539 5537 5534 5532 5529 5526 5523 5519 5515 5508 5504 5503 5501 5496 5492 5488 5483 5478 5470 5464 5461 5459 5458 5456 5455
5575 5571 5568 5565 5562 5560 5559 5557 5555 5553 5551 5549 5546 5543 5540 5537 5534 5531 5528 5526 5523 5520 5518 5514 5511 5507 5501 5492 5488 5485 5487 5483 5479 5474 5469 5465 5461 5454 5448 5445 5441 5439 5441
5566 5560 5556 5553 5550 5548 5546 5545 5544 5542 5539 5536 5534 5531 5529 5527 5524 5521 5518 5515 5512 5509 5507 5504 5500 5496 5487 5480 5476 5473 5473 5472 5467 5462 5458 5455 5452 5445 5442 5439 5437 5436 5434
5555 5550 5545 5541 5539 5537 5535 5534 5533 5531 5528 5526 5524 5521 5518 5515 5513 5511 5508 5505 5503 5500 5497 5493 5489 5485 5477 5470 5466 5463 5464 5462 5458 5453 5448 5444 5440 5436 5430 5431 5434 5436 5436
5544 5539 5535 5532 5530 5528 5526 5525 5523 5521 5519 5516 5513 5511 5508 5506 5503 5501 5498 5495 5493 5490 5488 5484 5479 5475 5468 5460 5457 5453 5457 5456 5452 5447 5442 5437 5434 5427 5424 5427 5432 5435 5436
5532 5528 5524 5522 5520 5518 5516 5515 5513 5511 5509 5506 5504 5501 5499 5497 5494 5491 5489 5486 5484 5482 5480 5475 5470 5466 5461 5452 5448 5444 5450 5450 5447 5444 5439 5433 5428 5424 5423 5426 5430 5433 5435
5521 5518 5516 5513 5511 5509 5508 5506 5504 5502 5500 5498 5495 5493 5490 5488 5486 5483 5481 5479 5478 5474 5471 5468 5464 5459 5452 5447 5441 5438 5440 5441 5440 5440 5437 5434 5428 5426 5425 5425 5429 5430 5429
5514 5511 5508 5505 5502 5501 5499 5498 5496 5493 5492 5490 5488 5485 5483 5482 5480 5477 5474 5472 5470 5468 5465 5462 5459 5455 5449 5442 5438 5434 5432 5430 5434 5436 5435 5434 5429 5428 5428 5429 5430 5429 5430
5507 5504 5502 5499 5496 5493 5492 5491 5488 5486 5484 5483 5481 5479 5477 5475 5473 5472 5470 5468 5465 5464 5461 5458 5455 5451 5447 5442 5436 5434 5432 5431 5433 5435 5432 5431 5431 5431 5434 5432 5432 5432 5437
5501 5499 5497 5494 5491 5488 5486 5484 5481 5479 5478 5477 5475 5473 5472 5470 5467 5466 5466 5464 5461 5459 5456 5453 5450 5447 5444 5440 5435 5434 5436 5435 5436 5436 5436 5435 5435 5435 5435 5436 5437 5438 5439
5497 5495 5492 5489 5486 5483 5481 5478 5475 5474 5473 5472 5470 5469 5468 5466 5463 5461 5456 5455 5450 5445 5443 5445 5443 5441 5439 5430 5424 5424 5430 5430 5433 5432 5438 5440 5441 5441 5440 5440 5440 5440 5440
5494 5491 5488 5485 5482 5479 5476 5473 5471 5470 5468 5467 5467 5466 5465 5462 5461 5458 5453 5442 5440 5436 5433 5430 5429 5431 5427 5425 5424 5425 5426 5428 5430 5433 5439 5440 5440 5440 5441 5440 5440 5440 5440